| time (UTC) | temp C | wind direction | speed KPH | gust KPH | rain 1hr cm | rain 24hr cm | rain mn cm | humidity % | barometer mb |
| 20260507093038 | 16 | 53 | 4.8 | 0.0 | 0.00 | 0.00 | 0.00 | 61 | 1013.9 |
| 20260507090038 | 15 | 82 | 4.8 | 0.0 | 0.00 | 0.00 | 0.00 | 63 | 1013.9 |
| 20260507084534 | 15 | 54 | 4.8 | 0.0 | 0.00 | 0.00 | 0.00 | 66 | 1013.8 |
| 20260507083023 | 14 | 44 | 4.8 | 0.0 | 0.00 | 0.00 | 0.00 | 68 | 1013.8 |
| 20260507080019 | 13 | 24 | 6.4 | 0.0 | 0.00 | 0.00 | 0.00 | 70 | 1013.8 |
| 20260507074526 | 13 | 48 | 4.8 | 0.0 | 0.00 | 0.00 | 0.00 | 70 | 1013.7 |
| 20260507073012 | 13 | 82 | 4.8 | 0.0 | 0.00 | 0.00 | 0.00 | 71 | 1013.6 |
| 20260507070018 | 12 | 57 | 6.4 | 0.0 | 0.00 | 0.00 | 0.00 | 75 | 1013.5 |
| 20260507064513 | 12 | 56 | 6.4 | 0.0 | 0.00 | 0.00 | 0.00 | 77 | 1013.5 |
| 20260507063010 | 11 | 51 | 8.0 | 0.0 | 0.00 | 0.00 | 0.00 | 77 | 1013.3 |
| 20260507060105 | 10 | 5 | 4.8 | 0.0 | 0.00 | 0.00 | 0.00 | 83 | 1013.4 |
| 20260507054552 | 9 | 64 | 3.2 | 0.0 | 0.00 | 0.00 | 0.00 | 87 | 1013.3 |
| 20260507053049 | 8 | 48 | 3.2 | 0.0 | 0.00 | 0.00 | 0.00 | 89 | 1013.0 |
| 20260507050042 | 7 | 47 | 3.2 | 0.0 | 0.00 | 0.00 | 0.00 | 90 | 1012.7 |
| 20260507044534 | 7 | 46 | 1.6 | 0.0 | 0.00 | 0.00 | 0.00 | 91 | 1012.7 |
| 20260507043031 | 7 | 0.0 | 0.0 | 0.00 | 0.00 | 0.00 | 91 | 1012.4 | |
| 20260507040023 | 7 | 0.0 | 0.0 | 0.00 | 0.00 | 0.00 | 90 | 1012.4 | |
| 20260507034530 | 7 | 0.0 | 0.0 | 0.00 | 0.00 | 0.00 | 89 | 1012.2 | |
| 20260507033018 | 7 | 0.0 | 0.0 | 0.00 | 0.00 | 0.00 | 89 | 1012.0 | |
| 20260507030015 | 7 | 0.0 | 0.0 | 0.00 | 0.00 | 0.00 | 89 | 1011.9 | |
| 20260507024506 | 7 | 0.0 | 0.0 | 0.00 | 0.00 | 0.00 | 88 | 1011.8 | |
| 20260507023001 | 7 | 0.0 | 0.0 | 0.00 | 0.00 | 0.00 | 88 | 1011.8 | |
| 20260507020055 | 8 | 0.0 | 0.0 | 0.00 | 0.00 | 0.00 | 87 | 1011.6 | |
| 20260507014551 | 8 | 0.0 | 0.0 | 0.00 | 0.00 | 0.00 | 87 | 1011.7 | |
| 20260507013045 | 8 | 0.0 | 0.0 | 0.00 | 0.00 | 0.00 | 86 | 1011.5 | |
| 20260507010044 | 8 | 0.0 | 0.0 | 0.00 | 0.00 | 0.00 | 85 | 1011.4 | |
| 20260507004532 | 8 | 0.0 | 0.0 | 0.00 | 0.00 | 0.00 | 84 | 1011.3 | |
| 20260507003028 | 9 | 0.0 | 0.0 | 0.00 | 0.00 | 0.00 | 83 | 1011.4 | |
| 20260507000023 | 9 | 0.0 | 0.0 | 0.00 | 0.00 | 0.00 | 81 | 1011.3 | |
| 20260506234517 | 10 | 0.0 | 0.0 | 0.00 | 0.00 | 0.00 | 80 | 1011.2 | |
| 20260506233012 | 10 | 0.0 | 0.0 | 0.00 | 0.00 | 0.00 | 79 | 1011.0 | |
| 20260506230013 | 10 | 0.0 | 0.0 | 0.00 | 0.00 | 0.00 | 76 | 1010.9 | |
| 20260506224503 | 11 | 0.0 | 0.0 | 0.00 | 0.00 | 0.00 | 75 | 1010.9 | |
| 20260506223101 | 11 | 0.0 | 0.0 | 0.00 | 0.00 | 0.00 | 74 | 1010.8 | |
| 20260506221657 | 11 | 0.0 | 0.0 | 0.00 | 0.00 | 0.00 | 73 | 1010.7 | |
| 20260506220057 | 11 | 0.0 | 0.0 | 0.00 | 0.00 | 0.00 | 73 | 1010.6 | |
| 20260506214600 | 12 | 0.0 | 0.0 | 0.00 | 0.00 | 0.00 | 72 | 1010.5 | |
| 20260506213048 | 12 | 0.0 | 0.0 | 0.00 | 0.00 | 0.00 | 72 | 1010.4 | |
| 20260506211645 | 12 | 0.0 | 0.0 | 0.00 | 0.00 | 0.00 | 71 | 1010.3 | |
| 20260506204608 | 12 | 0.0 | 0.0 | 0.00 | 0.00 | 0.00 | 72 | 1010.0 | |
| 20260506203051 | 12 | 0.0 | 0.0 | 0.00 | 0.00 | 0.00 | 70 | 1009.9 | |
| 20260506201649 | 12 | 0.0 | 0.0 | 0.00 | 0.00 | 0.00 | 70 | 1009.7 | |
| 20260506200059 | 12 | 0.0 | 0.0 | 0.00 | 0.00 | 0.00 | 71 | 1009.5 | |
| 20260506194555 | 12 | 0.0 | 0.0 | 0.00 | 0.00 | 0.00 | 75 | 1009.4 | |
| 20260506193052 | 12 | 0.0 | 0.0 | 0.00 | 0.00 | 0.00 | 75 | 1009.3 | |
| 20260506191648 | 12 | 0.0 | 0.0 | 0.00 | 0.00 | 0.00 | 73 | 1009.2 | |
| 20260506190025 | 13 | 0.0 | 0.0 | 0.00 | 0.00 | 0.00 | 73 | 1009.1 | |
| 20260506184525 | 13 | 0.0 | 0.0 | 0.00 | 0.00 | 0.00 | 73 | 1009.0 | |
| 20260506183037 | 13 | 0.0 | 0.0 | 0.00 | 0.00 | 0.00 | 72 | 1008.9 | |
| 20260506181534 | 13 | 0.0 | 0.0 | 0.00 | 0.00 | 0.00 | 65 | 1008.7 | |
| 20260506180032 | 13 | 0.0 | 0.0 | 0.00 | 0.00 | 0.00 | 63 | 1008.4 | |
| 20260506174524 | 13 | 0.0 | 0.0 | 0.00 | 0.00 | 0.00 | 62 | 1008.3 | |
| 20260506173028 | 13 | 0.0 | 0.0 | 0.00 | 0.00 | 0.00 | 67 | 1008.2 | |
| 20260506171526 | 13 | 57 | 6.4 | 0.0 | 0.00 | 0.00 | 0.00 | 73 | 1008.1 |
| 20260506170026 | 13 | 34 | 8.0 | 0.0 | 0.00 | 0.00 | 0.00 | 72 | 1008.0 |
| 20260506164526 | 14 | 42 | 8.0 | 0.0 | 0.00 | 0.00 | 0.00 | 71 | 1007.9 |
| 20260506163103 | 14 | 65 | 9.7 | 0.0 | 0.00 | 0.00 | 0.00 | 70 | 1007.7 |
| 20260506161610 | 14 | 49 | 8.0 | 0.0 | 0.00 | 0.00 | 0.00 | 70 | 1007.7 |
| 20260506160109 | 14 | 14 | 8.0 | 0.0 | 0.00 | 0.00 | 0.00 | 68 | 1007.7 |
| 20260506154601 | 15 | 80 | 9.7 | 0.0 | 0.00 | 0.00 | 0.00 | 67 | 1007.8 |
| 20260506153001 | 15 | 351 | 9.7 | 0.0 | 0.00 | 0.00 | 0.00 | 68 | 1007.6 |
| 20260506151502 | 15 | 46 | 9.7 | 0.0 | 0.00 | 0.00 | 0.00 | 68 | 1007.5 |
| 20260506150104 | 15 | 48 | 11.3 | 0.0 | 0.00 | 0.00 | 0.00 | 64 | 1007.6 |
| 20260506150002 | 15 | 64 | 11.3 | 0.0 | 0.00 | 0.00 | 0.00 | 64 | 1007.5 |
| 20260506144612 | 16 | 351 | 9.7 | 0.0 | 0.00 | 0.00 | 0.00 | 67 | 1007.4 |
| 20260506143054 | 15 | 9 | 9.7 | 0.0 | 0.00 | 0.00 | 0.00 | 67 | 1007.3 |
| 20260506141551 | 15 | 348 | 9.7 | 0.0 | 0.00 | 0.00 | 0.00 | 64 | 1007.5 |
| 20260506140105 | 15 | 36 | 9.7 | 0.0 | 0.00 | 0.00 | 0.00 | 64 | 1007.5 |
| 20260506134547 | 15 | 348 | 9.7 | 0.0 | 0.00 | 0.00 | 0.00 | 68 | 1007.6 |
| 20260506133035 | 15 | 355 | 11.3 | 0.0 | 0.00 | 0.00 | 0.00 | 69 | 1007.7 |
| 20260506131543 | 15 | 336 | 9.7 | 0.0 | 0.00 | 0.00 | 0.00 | 68 | 1007.6 |
| 20260506130045 | 15 | 336 | 11.3 | 0.0 | 0.00 | 0.00 | 0.00 | 69 | 1007.5 |
| 20260506124534 | 14 | 355 | 8.0 | 0.0 | 0.00 | 0.00 | 0.00 | 70 | 1007.3 |
| 20260506123044 | 14 | 62 | 11.3 | 0.0 | 0.00 | 0.00 | 0.00 | 68 | 1007.3 |
| 20260506121545 | 15 | 355 | 9.7 | 0.0 | 0.00 | 0.00 | 0.00 | 70 | 1007.3 |
| 20260506120037 | 14 | 79 | 9.7 | 0.0 | 0.00 | 0.00 | 0.00 | 74 | 1007.3 |
| 20260506114536 | 13 | 48 | 8.0 | 0.0 | 0.00 | 0.00 | 0.00 | 74 | 1007.2 |
| 20260506113034 | 14 | 51 | 8.0 | 0.0 | 0.00 | 0.00 | 0.00 | 74 | 1007.2 |
| 20260506111532 | 15 | 346 | 11.3 | 0.0 | 0.00 | 0.00 | 0.00 | 72 | 1007.1 |
| 20260506110038 | 15 | 294 | 11.3 | 0.0 | 0.00 | 0.00 | 0.00 | 71 | 1007.1 |
| 20260506104528 | 15 | 77 | 8.0 | 0.0 | 0.00 | 0.00 | 0.00 | 71 | 1007.1 |
| 20260506103025 | 14 | 337 | 9.7 | 0.0 | 0.00 | 0.00 | 0.00 | 72 | 1007.0 |
| 20260506101529 | 13 | 277 | 6.4 | 0.0 | 0.00 | 0.00 | 0.00 | 74 | 1007.0 |
| 20260506100023 | 13 | 49 | 8.0 | 0.0 | 0.00 | 0.00 | 0.00 | 75 | 1006.9 |
| 20260506094526 | 13 | 19 | 8.0 | 0.0 | 0.00 | 0.00 | 0.00 | 71 | 1007.0 |